Location: Glencliff
(36.1226°N, 86.7183°W)
Time: 04:44:33
(UTC+00:00)

Cosmos 1455 - Pass Details

Date: 25 August 2019
Orbit: 501 x 522 km, 82.5° (Epoch: 18 September)

Event Time Altitude Azimuth Distance (km) Brightness Sun altitude
Exits shadow 08:59:28 48° 27° (NNE) 660 3.0 -25.1°
Drops below altitude 10° 09:02:18 10° 11° (N) 1,715 5.4 -24.7°
Sets 09:04:26 0° 10° (N) 2,606 6.4 -24.3°
